Overview Statistics Trail Chart Weather Telemetry Raw packets
 

This is the latest recevied weather packets stored in our database for station/object W8KJR. If no packets are shown the sender has not sent any weather packets the latest 10 day(s).

<< 4 5 6 7 8 9 10 >>
Time Temp. Humidity Pressure Rain* Wind** Luminosity Snow
1777901646 15° C 64% 1006.3 hPa 0 mm - - -
1777900744 15° C 65% 1006.8 hPa 0 mm - - -
1777899840 14.44° C 65% 1006.5 hPa 0 mm - - -
1777898938 14.44° C 67% 1006.5 hPa 0 mm - - -
1777898035 13.33° C 67% 1006.8 hPa 0 mm - - -
1777897135 13.33° C 67% 1006.7 hPa 0 mm - - -
1777896232 13.33° C 66% 1006.9 hPa 0 mm - - -
1777895330 12.22° C 68% 1006.7 hPa 0 mm - - -
1777894427 11.67° C 70% 1006.6 hPa 0 mm - - -
1777893524 10.56° C 72% 1006.6 hPa 0 mm - - -
1777892620 10° C 73% 1006.6 hPa 0 mm - - -
1777891715 10° C 74% 1006.3 hPa 0 mm - - -
1777890814 10° C 73% 1006.5 hPa 0 mm - - -
1777889908 10.56° C 71% 1006.4 hPa 0 mm - - -
1777889006 10.56° C 70% 1006.8 hPa 0 mm - - -
1777888101 10.56° C 70% 1006.5 hPa 0 mm - - -
1777887197 10.56° C 71% 1006.7 hPa 0 mm - - -
1777886292 10.56° C 70% 1007 hPa 0 mm - - -
1777885392 10.56° C 70% 1006.8 hPa 0 mm - - -
1777884488 10.56° C 70% 1007.1 hPa 0 mm - - -
1777883585 10.56° C 69% 1007.3 hPa 0 mm - - -
1777882686 10.56° C 69% 1007.6 hPa 0 mm - - -
1777881781 10.56° C 68% 1007.4 hPa 0 mm - - -
1777880879 11.11° C 67% 1007.9 hPa 0 mm - - -
1777879978 11.11° C 66% 1007.9 hPa 0 mm - - -

* Rain latest hour (hover to see other rain measurements)
** Current wind speed in m/s (hover to see current wind gust speed)